When you browse on this site, cookies collect data to enhance your experience and personalize the content and advertising you see.
Visit our Privacy Policy to learn more. By continuing to use the site, you agree to this use of cookies and data.
  • In Hungary
  • List of Countries
  • For 7 days
  • Water Temperature
  • Satellite Maps
  • Weather Map
  • News
  • Weather Widgets
  • user-avatar
    Login

    Hourly Weather Valencia

    Today, 17 January, Thursday

    Time Temperature Precipitation Wind Pressure Humidity
    00:00 +23°C° 0 mm 1 mps 719 mmHg 94%
    01:00 +23°C° 0 mm 1 mps 719 mmHg 95%
    02:00 +23°C° 0 mm 1 mps 719 mmHg 95%
    03:00 +23°C° 0 mm 1 mps 719 mmHg 95%
    04:00 +23°C° 0 mm 1 mps 719 mmHg 95%
    05:00 +23°C° 0 mm 1 mps 719 mmHg 93%
    06:00 +24°C° 0 mm 1 mps 720 mmHg 90%
    07:00 +22°C° 0 mm 0 mps 720 mmHg 88%
    08:00 +26°C° 0.1 mm 1 mps 721 mmHg 77%
    09:00 +29°C° 0.1 mm 1 mps 721 mmHg 66%
    10:00 +31°C° 0.1 mm 1 mps 722 mmHg 56%
    11:00 +31°C° 0.4 mm 1 mps 721 mmHg 56%
    12:00 +31°C° 0.4 mm 1 mps 720 mmHg 57%
    13:00 +31°C° 0.4 mm 1 mps 719 mmHg 58%
    14:00 +30°C° 0.6 mm 2 mps 719 mmHg 61%
    15:00 +30°C° 0.6 mm 2 mps 718 mmHg 64%
    16:00 +29°C° 0.6 mm 2 mps 717 mmHg 67%
    17:00 +27°C° 0.1 mm 2 mps 718 mmHg 74%
    18:00 +26°C° 0.1 mm 2 mps 718 mmHg 82%
    19:00 +24°C° 0.1 mm 2 mps 718 mmHg 90%
    20:00 +24°C° 0 mm 2 mps 718 mmHg 91%
    21:00 +24°C° 0 mm 1 mps 718 mmHg 93%
    22:00 +24°C° 0 mm 1 mps 719 mmHg 94%
    23:00 +23°C° 0 mm 1 mps 719 mmHg 94%

    Tomorrow, 18 January, Friday

    Time Temperature Precipitation Wind Pressure Humidity
    00:00 +23°C° 0 mm 1 mps 719 mmHg 94%
    01:00 +23°C° 0 mm 1 mps 718 mmHg 95%
    02:00 +23°C° 0 mm 1 mps 718 mmHg 95%
    03:00 +23°C° 0 mm 1 mps 718 mmHg 95%
    04:00 +22°C° 0 mm 1 mps 718 mmHg 96%
    05:00 +23°C° 0 mm 1 mps 718 mmHg 93%
    06:00 +23°C° 0 mm 1 mps 719 mmHg 91%
    07:00 +24°C° 0 mm 1 mps 719 mmHg 89%
    08:00 +26°C° 0 mm 1 mps 719 mmHg 78%
    09:00 +28°C° 0 mm 1 mps 720 mmHg 68%
    10:00 +31°C° 0 mm 1 mps 720 mmHg 57%
    11:00 +31°C° 0.3 mm 1 mps 720 mmHg 56%
    12:00 +31°C° 0.3 mm 2 mps 719 mmHg 55%
    13:00 +32°C° 0.3 mm 2 mps 718 mmHg 54%
    14:00 +31°C° 0.4 mm 2 mps 717 mmHg 58%
    15:00 +30°C° 0.4 mm 2 mps 717 mmHg 62%
    16:00 +29°C° 0.4 mm 2 mps 716 mmHg 67%
    17:00 +28°C° 0.1 mm 2 mps 717 mmHg 74%
    18:00 +26°C° 0.1 mm 2 mps 717 mmHg 82%
    19:00 +25°C° 0.1 mm 2 mps 717 mmHg 90%
    20:00 +24°C° 0 mm 1 mps 718 mmHg 92%
    21:00 +24°C° 0 mm 1 mps 718 mmHg 93%
    22:00 +24°C° 0 mm 1 mps 718 mmHg 95%
    23:00 +23°C° 0 mm 1 mps 718 mmHg 95%

    Day after tomorrow, 19 January, Saturday

    Time Temperature Precipitation Wind Pressure Humidity
    00:00 +23°C° 0 mm 1 mps 718 mmHg 95%
    01:00 +23°C° 0 mm 1 mps 718 mmHg 96%
    02:00 +23°C° 0 mm 1 mps 718 mmHg 96%
    03:00 +23°C° 0 mm 1 mps 718 mmHg 96%
    04:00 +22°C° 0 mm 1 mps 717 mmHg 96%
    05:00 +23°C° 0 mm 1 mps 718 mmHg 94%
    06:00 +23°C° 0 mm 1 mps 719 mmHg 91%
    07:00 +22°C° 0 mm 0 mps 719 mmHg 89%
    08:00 +26°C° 0 mm 1 mps 720 mmHg 76%
    09:00 +29°C° 0 mm 1 mps 720 mmHg 63%
    10:00 +31°C° 0 mm 1 mps 720 mmHg 51%
    11:00 +32°C° 0 mm 2 mps 720 mmHg 47%
    12:00 +34°C° 0 mm 2 mps 719 mmHg 44%
    13:00 +35°C° 0 mm 2 mps 718 mmHg 41%
    14:00 +34°C° 0 mm 2 mps 717 mmHg 45%
    15:00 +32°C° 0 mm 2 mps 717 mmHg 48%
    16:00 +31°C° 0 mm 2 mps 716 mmHg 52%
    17:00 +29°C° 0 mm 2 mps 716 mmHg 63%
    18:00 +27°C° 0 mm 2 mps 717 mmHg 75%
    19:00 +25°C° 0 mm 2 mps 717 mmHg 86%
    20:00 +24°C° 0 mm 2 mps 717 mmHg 88%
    21:00 +24°C° 0 mm 2 mps 718 mmHg 91%
    22:00 +24°C° 0 mm 2 mps 718 mmHg 93%
    23:00 +24°C° 0 mm 1 mps 718 mmHg 93%

    20 January, Sunday

    Time Temperature Precipitation Wind Pressure Humidity
    00:00 +23°C° 0 mm 1 mps 718 mmHg 93%
    01:00 +23°C° 0 mm 1 mps 718 mmHg 94%
    02:00 +23°C° 0 mm 1 mps 718 mmHg 94%
    03:00 +23°C° 0 mm 1 mps 717 mmHg 94%
    04:00 +22°C° 0 mm 1 mps 717 mmHg 95%
    05:00 +23°C° 0 mm 1 mps 718 mmHg 92%
    06:00 +23°C° 0 mm 1 mps 718 mmHg 90%
    07:00 +24°C° 0 mm 1 mps 719 mmHg 87%
    08:00 +26°C° 0 mm 1 mps 720 mmHg 74%
    09:00 +29°C° 0 mm 1 mps 720 mmHg 60%
    10:00 +32°C° 0 mm 1 mps 721 mmHg 47%
    11:00 +33°C° 0 mm 1 mps 720 mmHg 44%
    12:00 +34°C° 0 mm 2 mps 719 mmHg 42%
    13:00 +35°C° 0 mm 2 mps 718 mmHg 39%
    14:00 +34°C° 0 mm 2 mps 718 mmHg 42%
    15:00 +32°C° 0 mm 2 mps 717 mmHg 45%
    16:00 +31°C° 0 mm 2 mps 716 mmHg 48%
    17:00 +29°C° 0 mm 2 mps 717 mmHg 59%
    18:00 +27°C° 0 mm 1 mps 717 mmHg 70%
    19:00 +25°C° 0 mm 1 mps 717 mmHg 81%
    20:00 +25°C° 0 mm 1 mps 718 mmHg 84%
    21:00 +24°C° 0 mm 1 mps 718 mmHg 88%
    22:00 +24°C° 0 mm 1 mps 718 mmHg 91%
    23:00 +24°C° 0 mm 1 mps 718 mmHg 92%

    21 January, Monday

    Time Temperature Precipitation Wind Pressure Humidity
    00:00 +24°C° 0 mm 1 mps 718 mmHg 93%
    01:00 +23°C° 0 mm 1 mps 718 mmHg 94%
    02:00 +23°C° 0 mm 1 mps 718 mmHg 94%
    03:00 +23°C° 0 mm 1 mps 718 mmHg 94%
    04:00 +23°C° 0 mm 1 mps 718 mmHg 94%
    05:00 +23°C° 0 mm 1 mps 718 mmHg 92%
    06:00 +24°C° 0 mm 1 mps 719 mmHg 90%
    07:00 +24°C° 0 mm 1 mps 720 mmHg 87%
    08:00 +27°C° 0 mm 1 mps 720 mmHg 75%
    09:00 +29°C° 0 mm 1 mps 721 mmHg 62%
    10:00 +32°C° 0 mm 1 mps 721 mmHg 50%
    11:00 +32°C° 0.1 mm 2 mps 720 mmHg 49%
    12:00 +34°C° 0.1 mm 2 mps 719 mmHg 47%
    13:00 +34°C° 0.1 mm 2 mps 719 mmHg 46%
    14:00 +32°C° 0.1 mm 2 mps 718 mmHg 52%
    15:00 +31°C° 0.1 mm 2 mps 717 mmHg 58%
    16:00 +30°C° 0.1 mm 3 mps 717 mmHg 64%
    17:00 +28°C° 0.1 mm 3 mps 717 mmHg 73%
    18:00 +26°C° 0.1 mm 2 mps 717 mmHg 81%
    19:00 +25°C° 0.1 mm 2 mps 718 mmHg 90%
    20:00 +25°C° 0 mm 2 mps 718 mmHg 91%
    21:00 +24°C° 0 mm 2 mps 719 mmHg 91%
    22:00 +24°C° 0 mm 2 mps 719 mmHg 92%
    23:00 +24°C° 0 mm 2 mps 719 mmHg 92%

    22 January, Tuesday

    Time Temperature Precipitation Wind Pressure Humidity
    00:00 +24°C° 0 mm 2 mps 719 mmHg 93%
    01:00 +23°C° 0 mm 1 mps 719 mmHg 93%
    02:00 +23°C° 0 mm 1 mps 718 mmHg 94%
    03:00 +23°C° 0 mm 1 mps 718 mmHg 94%
    04:00 +23°C° 0 mm 1 mps 718 mmHg 94%
    05:00 +23°C° 0 mm 1 mps 719 mmHg 92%
    06:00 +23°C° 0 mm 1 mps 719 mmHg 90%
    07:00 +24°C° 0 mm 1 mps 720 mmHg 88%
    08:00 +26°C° 0 mm 1 mps 720 mmHg 78%
    09:00 +28°C° 0 mm 2 mps 721 mmHg 68%
    10:00 +30°C° 0 mm 2 mps 721 mmHg 58%
    11:00 +30°C° 0.1 mm 2 mps 720 mmHg 57%
    12:00 +31°C° 0.1 mm 2 mps 720 mmHg 55%
    13:00 +31°C° 0.1 mm 2 mps 719 mmHg 54%
    14:00 +30°C° 0.2 mm 2 mps 718 mmHg 58%
    15:00 +29°C° 0.2 mm 2 mps 718 mmHg 62%
    16:00 +28°C° 0.2 mm 2 mps 717 mmHg 67%
    17:00 +27°C° 0.1 mm 2 mps 718 mmHg 74%
    18:00 +26°C° 0.1 mm 2 mps 718 mmHg 82%
    19:00 +24°C° 0.1 mm 2 mps 718 mmHg 89%
    20:00 +24°C° 0 mm 2 mps 718 mmHg 91%
    21:00 +24°C° 0 mm 2 mps 719 mmHg 92%
    22:00 +23°C° 0 mm 2 mps 719 mmHg 94%
    23:00 +23°C° 0 mm 2 mps 719 mmHg 94%
    Show more